Location: Wapato
(46.4478°N, 120.4212°W)
Time: 17:49:31
(UTC+00:00)

Explorer 7 - Pass Details

Date: 14 May 2026
Orbit: 426 x 534 km, 50.2° (Epoch: 9 June)

Event Time Altitude Azimuth Distance (km) Brightness Sun altitude
Rises 19:38:19 0° 288° (WNW) 2,597 10.1 62.0°
Reaches altitude 10° 19:40:45 10° 275° (W) 1,729 9.4 62.1°
Maximum altitude 19:43:59 25° 220° (SW) 1,085 9.0 62.2°
Drops below altitude 10° 19:47:17 10° 164° (SSE) 1,762 10.0 62.2°
Sets 19:49:47 0° 151° (SSE) 2,659 10.7 62.3°
